[[{"header":{"parameterUnit":"m.s-1","parameterCategory":2,"la1":30.2991,"la2":30.254,"lo1":-89.0895,"lo2":-89.0444,"dy":0.0017,"dx":0.0017,"nx":28,"ny":28,"refTime":"2025-03-17T21:00:00:Z","depth":"0","parameterNumber":2,"parameterNumberName":"U-component_of_CURRENTS"},"data":[0,0,0,0,0,0,0,0,0,0,0,0,0,0,0,0,0,0,0,0,0,0,0,0,0,0,0,0,0,0,0,0,0,0,0,0,0,0,0,0,0,0,0,0,0,0,0,0,0,0,0,0,0,0,0,0,0,0,-0.2327,-0.2328,0,-0.2397,-0.2397,-0.2398,-0.2393,-0.2392,-0.2391,-0.239,-0.2339,-0.2339,-0.2338,0,0,0,0,0,0,0,0,0,0,0,0,0,-0.2228,-0.223,-0.2327,-0.2328,-0.2329,-0.2397,-0.2397,-0.2398,-0.2393,-0.2392,-0.2391,-0.239,-0.234,-0.2339,-0.2338,0,0,0,0,0,0,0,0,0,0,0,0,0,-0.2281,-0.223,-0.2327,-0.2336,-0.2337,-0.2396,-0.2397,-0.2398,-0.2393,-0.2392,-0.2391,-0.2389,-0.234,-0.2339,-0.2338,-0.2362,0,0,-0.2336,-0.2336,0,0,0,0,0,0,0,0,-0.2278,-0.2284,-0.2333,-0.2335,-0.2337,-0.2386,-0.2344,-0.2381,-0.2394,-0.2371,-0.239,-0.2389,-0.2345,-0.2344,-0.236,-0.2359,-0.2357,-0.2336,-0.2335,-0.2335,-0.2335,0,0,0,0,0,0,0,-0.2274,-0.2281,-0.2353,-0.2334,-0.2337,-0.2349,-0.2355,-0.2352,-0.2362,-0.2373,-0.2373,-0.2383,-0.2345,-0.2361,-0.2359,-0.2356,-0.2336,-0.2335,-0.2335,-0.2335,-0.2357,-0.2358,0,0,0,0,0,0,-0.2268,-0.2278,-0.2351,-0.2356,-0.2305,-0.2352,-0.2358,-0.2371,-0.2365,-0.2364,-0.2384,-0.2382,-0.2363,-0.236,-0.2357,-0.2378,-0.2335,-0.2334,-0.2334,-0.2356,-0.2357,-0.2358,0,0,0,0,0,0,-0.2265,-0.2274,-0.2348,-0.2319,-0.2329,-0.2355,-0.2369,-0.2373,-0.2387,-0.2375,-0.2371,-0.2394,-0.2362,-0.2358,-0.2356,-0.2376,-0.2334,-0.2333,-0.2354,-0.2356,-0.2357,-0.2424,0,0,0,0,0,0,-0.2262,-0.2273,-0.2284,-0.2319,-0.2331,-0.2389,-0.2371,-0.2375,-0.2396,-0.2394,-0.2382,-0.2376,-0.2361,-0.2357,-0.2355,-0.2374,-0.2333,-0.2353,-0.2355,-0.2357,-0.242,-0.2427,-0.2433,0,0,0,0,0,-0.2259,-0.2283,-0.2284,-0.2293,-0.2344,-0.239,-0.2398,-0.241,-0.2397,-0.2415,-0.24,-0.2377,-0.2367,-0.2357,-0.2355,-0.2374,-0.2352,-0.2355,-0.2357,-0.2417,-0.2426,-0.2433,0,0,0,0,0,0,-0.2249,-0.2286,-0.2288,-0.2322,-0.2354,-0.2389,-0.2408,-0.2415,-0.2422,-0.2413,-0.2391,-0.2386,-0.2393,-0.2375,-0.2364,-0.2386,-0.2356,-0.2358,-0.2403,-0.2411,-0.2417,-0.2425,-0.2332,0,0,0,0,0,-0.2252,-0.2276,-0.2313,-0.234,-0.2355,-0.2381,-0.2401,-0.2412,-0.2423,-0.2426,-0.2419,-0.2407,-0.2404,-0.2399,-0.2395,-0.2407,-0.2401,-0.2417,-0.2424,-0.243,-0.2435,-0.2446,-0.2455,-0.2366,-0.2366,-0.2366,0,0,-0.2256,-0.228,-0.2293,-0.2339,-0.236,-0.2401,-0.2389,-0.2424,-0.2455,-0.2417,-0.2445,-0.2431,-0.2413,-0.2428,-0.243,-0.2413,-0.2454,-0.2433,-0.2438,-0.2439,-0.245,-0.2458,-0.2466,-0.2367,-0.2367,-0.2367,0,0,-0.2281,-0.2295,-0.2325,-0.2357,-0.2397,-0.2417,-0.2427,-0.2465,-0.2475,-0.2504,-0.2482,-0.2482,-0.2481,-0.2479,-0.2473,-0.2515,-0.249,-0.2508,-0.2547,-0.2559,-0.2566,-0.2572,-0.2587,-0.2594,-0.251,-0.251,-0.251,0,-0.2285,-0.2328,-0.2342,-0.2383,-0.2414,-0.2425,-0.2469,-0.2491,-0.2524,-0.2536,-0.2516,-0.253,-0.2509,-0.2532,-0.254,-0.2531,-0.253,-0.2518,-0.2568,-0.2574,-0.2579,-0.2593,-0.26,-0.2513,-0.2513,-0.2513,-0.2512,0,-0.2335,-0.2372,-0.2394,-0.2446,-0.248,-0.2521,-0.2553,-0.2579,-0.2584,-0.2603,-0.2626,-0.2609,-0.2611,-0.2609,-0.2583,-0.2614,-0.26,-0.2577,-0.2549,-0.2592,-0.2604,-0.261,-0.2518,-0.2517,-0.2516,-0.2515,0,0,-0.2341,-0.2414,-0.2423,-0.2456,-0.2517,-0.2551,-0.2599,-0.2648,-0.2676,-0.2694,-0.2729,-0.2723,-0.2705,-0.2698,-0.2672,-0.2679,-0.2714,-0.2642,-0.2641,-0.2659,-0.2744,-0.2773,-0.2782,-0.2697,-0.2698,-0.2699,-0.274,0,-0.2377,-0.2454,-0.2486,-0.2562,-0.2604,-0.2635,-0.2681,-0.2723,-0.2742,-0.2777,-0.2767,-0.2782,-0.2742,-0.2736,-0.2741,-0.2715,-0.2731,-0.2705,-0.2696,-0.2696,-0.2719,-0.2791,-0.2631,-0.2658,-0.2746,-0.2747,-0.2748,0,-0.2419,-0.2466,-0.2537,-0.2619,-0.264,-0.2683,-0.275,-0.2793,-0.2838,-0.2852,-0.2866,-0.2854,-0.2862,-0.2818,-0.2819,-0.2801,-0.278,-0.2764,-0.2765,-0.2773,-0.2737,-0.2625,-0.2665,-0.2506,-0.2757,-0.2756,-0.2755,0,-0.241,-0.2506,-0.2557,-0.2588,-0.2676,-0.2708,-0.2752,-0.2808,-0.2844,-0.2888,-0.291,-0.2923,-0.2918,-0.2906,-0.2861,-0.2841,-0.2862,-0.2832,-0.2849,-0.285,-0.2704,-0.2691,-0.2588,-0.2849,-0.2849,-0.2849,-0.2849,0,-0.244,-0.2488,-0.2554,-0.2585,-0.2656,-0.2708,-0.2773,-0.2821,-0.2876,-0.2924,-0.2933,-0.2963,-0.2936,-0.2937,-0.29,-0.2901,-0.2895,-0.2879,-0.2873,-0.2725,-0.2715,-0.2561,-0.2562,-0.285,-0.285,-0.285,-0.2849,0,-0.2434,-0.2475,-0.2542,-0.2625,-0.2652,-0.2698,-0.2787,-0.2832,-0.288,-0.2942,-0.2954,-0.2991,-0.3001,-0.2981,-0.2964,-0.2952,-0.2881,-0.2943,-0.2779,-0.2755,-0.2656,-0.267,-0.2706,-0.264,-0.2994,-0.2995,-0.2996,0,-0.2442,-0.2467,-0.2555,-0.2592,-0.2631,-0.27,-0.2751,-0.2824,-0.2871,-0.2958,-0.2988,-0.302,-0.3041,-0.3047,-0.3031,-0.3018,-0.2896,-0.2859,-0.281,-0.2655,-0.2664,-0.2687,-0.2628,-0.2632,-0.263,-0.2628,-0.2627,0,-0.2453,-0.2471,-0.2523,-0.2586,-0.2642,-0.2709,-0.2782,-0.2815,-0.29,-0.2944,-0.2998,-0.3019,-0.3066,-0.2999,-0.3003,-0.2948,-0.2752,-0.2831,-0.2681,-0.2409,-0.2413,-0.2341,-0.2609,-0.2611,-0.2613,-0.2614,-0.2615,-0.2615,-0.245,-0.2479,-0.2521,-0.2583,-0.2642,-0.2685,-0.2695,-0.2772,-0.2817,-0.2851,-0.2951,-0.2921,-0.2878,-0.2885,-0.2836,-0.2589,-0.2751,-0.2444,-0.2486,-0.2531,-0.2438,-0.2711,-0.271,-0.2712,-0.2714,-0.2715,-0.2716,0,-0.2437,-0.2461,-0.2516,-0.2565,-0.2595,-0.2637,-0.2687,-0.2658,-0.2663,-0.2714,-0.275,-0.2661,-0.2567,-0.2455,-0.2309,-0.2216,-0.2143,-0.2097,-0.1993,-0.196,-0.2155,-0.2098,-0.1949,-0.1949,-0.1949,-0.195,-0.195,-0.195,-0.2426,-0.2449,-0.2469,-0.2489,-0.2516,-0.2491,-0.2484,-0.244,-0.2416,-0.2326,-0.2262,-0.2303,-0.2162,-0.215,-0.1883,-0.1786,-0.1682,-0.1716,-0.1758,-0.1752,-0.1782,-0.181,-0.1746,-0.1527,-0.1527,-0.1411,-0.141,-0.141]},{"header":{"parameterUnit":"m.s-1","parameterCategory":2,"la1":30.2991,"la2":30.254,"lo1":-89.0895,"lo2":-89.0444,"dy":0.0017,"dx":0.0017,"nx":28,"ny":28,"refTime":"2025-03-17T21:00:00:Z","depth":"0","parameterNumber":3,"parameterNumberName":"V-component_of_CURRENTS"},"data":[0,0,0,0,0,0,0,0,0,0,0,0,0,0,0,0,0,0,0,0,0,0,0,0,0,0,0,0,0,0,0,0,0,0,0,0,0,0,0,0,0,0,0,0,0,0,0,0,0,0,0,0,0,0,0,0,0,0,-0.0249,-0.0248,0,-0.0166,-0.0164,-0.0163,-0.0123,-0.0123,-0.0123,-0.0123,-0.0008,-0.0005,-0.0002,0,0,0,0,0,0,0,0,0,0,0,0,0,-0.0336,-0.0335,-0.0249,-0.0248,-0.0247,-0.0166,-0.0164,-0.0163,-0.0122,-0.0123,-0.0123,-0.0123,-0.0009,-0.0005,-0.0001,0,0,0,0,0,0,0,0,0,0,0,0,0,-0.0279,-0.0335,-0.0249,-0.0218,-0.0215,-0.0166,-0.0164,-0.0163,-0.0122,-0.0123,-0.0123,-0.0123,-0.001,-0.0006,-0.0001,0.0033,0,0,0.0014,0.0016,0,0,0,0,0,0,0,0,-0.0282,-0.0276,-0.0224,-0.022,-0.0216,-0.0156,-0.0153,-0.0096,-0.0122,-0.0156,-0.0123,-0.0123,-0.0055,-0.0047,-0.0029,0.0039,0.0044,0.0014,0.0017,0.0019,0.002,0,0,0,0,0,0,0,-0.0286,-0.0279,-0.0214,-0.0223,-0.0218,-0.0196,-0.0188,-0.0142,-0.0104,-0.0153,-0.015,-0.0143,-0.0053,-0.0034,-0.0026,0.0045,0.0014,0.0018,0.0021,0.0023,0.0146,0.0147,0,0,0,0,0,0,-0.0301,-0.0283,-0.0217,-0.0212,-0.0252,-0.0195,-0.0186,-0.0174,-0.0105,-0.0095,-0.0143,-0.0142,-0.0042,-0.0032,-0.0022,0.0012,0.0019,0.0024,0.0026,0.0146,0.0147,0.0147,0,0,0,0,0,0,-0.0303,-0.0296,-0.0221,-0.0247,-0.0236,-0.0193,-0.018,-0.0172,-0.0155,-0.0098,-0.0087,-0.0135,-0.0042,-0.0028,0.0015,0.0018,0.0026,0.003,0.0146,0.0146,0.0147,0.0088,0,0,0,0,0,0,-0.0306,-0.0297,-0.0295,-0.0248,-0.0235,-0.0199,-0.018,-0.017,-0.0151,-0.0149,-0.0087,-0.0077,-0.0041,0.0008,0.002,0.0024,0.0034,0.0145,0.0146,0.0147,0.0089,0.0086,0.0084,0,0,0,0,0,-0.0309,-0.031,-0.0296,-0.0288,-0.0234,-0.0199,-0.0191,-0.016,-0.0151,-0.0145,-0.0104,-0.0079,0.0021,0.0012,0.0026,0.0032,0.0145,0.0146,0.0147,0.009,0.0087,0.0084,0,0,0,0,0,0,-0.0354,-0.0304,-0.0288,-0.0275,-0.0243,-0.0193,-0.0188,-0.0164,-0.0126,-0.0125,-0.0071,-0.0058,-0.0019,0.0017,0.0005,0.0071,0.0087,0.009,0.0039,0.0036,0.0034,0.0017,0.0038,0,0,0,0,0,-0.0361,-0.0346,-0.0298,-0.0291,-0.0277,-0.0232,-0.0216,-0.0193,-0.0153,-0.0137,-0.0093,-0.0045,-0.0002,0.0023,0.0067,0.0105,0.0129,0.0118,0.0115,0.0113,0.0109,0.0157,0.0158,0.015,0.015,0.015,0,0,-0.038,-0.0349,-0.0343,-0.0299,-0.0272,-0.0252,-0.0223,-0.0202,-0.0184,-0.013,-0.0095,-0.0053,0.0006,0.0044,0.0065,0.0074,0.0124,0.0114,0.0111,0.0109,0.0158,0.0158,0.0159,0.015,0.015,0.015,0,0,-0.0406,-0.038,-0.0374,-0.0346,-0.0307,-0.0276,-0.0272,-0.0222,-0.02,-0.016,-0.0118,-0.0076,-0.0008,0.0034,0.0064,0.0075,0.0106,0.0088,0.0063,0.0109,0.011,0.0111,0.0118,0.012,0.0088,0.0088,0.0088,0,-0.0433,-0.0411,-0.037,-0.0355,-0.0337,-0.029,-0.0281,-0.0248,-0.019,-0.017,-0.0159,-0.0059,-0.0012,0.004,0.004,0.0069,0.0085,0.0067,0.0104,0.0105,0.0107,0.0115,0.0119,0.0085,0.0085,0.0086,0.0086,0,-0.0448,-0.043,-0.0428,-0.0388,-0.0365,-0.0352,-0.0302,-0.0276,-0.0245,-0.0208,-0.0155,-0.0091,-0.0033,-0.0011,0.0018,0.0057,0.0059,0.0091,0.0106,0.0104,0.0113,0.0117,0.0081,0.0082,0.0083,0.0084,0,0,-0.051,-0.045,-0.045,-0.0436,-0.0381,-0.0366,-0.0336,-0.0293,-0.0278,-0.022,-0.0192,-0.0117,-0.0085,-0.0049,-0.0003,0.0036,0.0057,0.006,0.0064,0.0055,0.0126,0.0132,0.0138,0.0093,0.0094,0.0095,0.0117,0,-0.0537,-0.052,-0.0478,-0.0466,-0.0453,-0.0399,-0.0377,-0.0332,-0.0289,-0.025,-0.0182,-0.0138,-0.0097,-0.0075,-0.0029,0.004,0.0069,0.0046,0.014,0.0142,0.0139,0.0145,0.02,0.0226,0.0121,0.0122,0.0123,0,-0.0566,-0.0547,-0.054,-0.0497,-0.0489,-0.0475,-0.0434,-0.0404,-0.0337,-0.0304,-0.0247,-0.0192,-0.0127,-0.0092,0.0014,-0.0006,0.0051,0.01,0.0103,0.0135,0.0158,0.0218,0.0238,0.0435,0.013,0.0129,0.0129,0,-0.0628,-0.0592,-0.0589,-0.0574,-0.052,-0.0511,-0.0485,-0.0426,-0.0409,-0.0339,-0.0326,-0.0231,-0.0196,-0.0099,-0.0011,0.0008,0.009,0.0138,0.0193,0.0193,0.0273,0.0278,0.0489,0.0212,0.0211,0.0211,0.0211,0,-0.0669,-0.0667,-0.0621,-0.0618,-0.0623,-0.0565,-0.0563,-0.0522,-0.0472,-0.0471,-0.0364,-0.0354,-0.0195,-0.0131,-0.0033,0.0074,0.0075,0.0185,0.0208,0.0251,0.0254,0.0455,0.052,0.0212,0.0212,0.0212,0.0212,0,-0.0733,-0.07,-0.0697,-0.0656,-0.065,-0.0656,-0.0626,-0.0629,-0.0567,-0.0564,-0.0548,-0.0447,-0.0365,-0.0229,-0.0084,0.0033,0.0248,0.0178,0.0193,0.0219,0.0485,0.0541,0.0715,0.0796,0.0272,0.0272,0.0273,0,-0.0762,-0.0765,-0.0744,-0.0762,-0.0747,-0.0745,-0.0754,-0.069,-0.0698,-0.0639,-0.0658,-0.0566,-0.0546,-0.0335,-0.0092,0.0089,0.0235,0.0268,0.0337,0.0508,0.0589,0.063,0.0689,0.041,0.0411,0.0412,0.0413,0,-0.0821,-0.0814,-0.0815,-0.0854,-0.0872,-0.0886,-0.0893,-0.0912,-0.0856,-0.0866,-0.0878,-0.0855,-0.0611,-0.0383,-0.0102,0.0052,0.0422,0.0299,0.05,0.073,0.0768,0.0853,0.0355,0.0424,0.0423,0.0422,0.0421,0.0421,-0.0874,-0.0899,-0.0915,-0.0957,-0.0987,-0.104,-0.1088,-0.111,-0.1155,-0.1192,-0.1103,-0.1052,-0.0584,-0.0177,0.0002,0.0541,0.0484,0.0718,0.0771,0.0797,0.0895,0.039,0.0472,0.0472,0.0471,0.0471,0.047,0,-0.0952,-0.098,-0.1024,-0.1078,-0.1153,-0.1137,-0.12,-0.1268,-0.1381,-0.1338,-0.1368,-0.0886,-0.0474,0.0042,0.0758,0.1013,0.1099,0.1156,0.1276,0.1312,0.0909,0.094,0.1098,0.1098,0.1098,0.1098,0.1097,0.1097,-0.0995,-0.1066,-0.1089,-0.1228,-0.1279,-0.1405,-0.1465,-0.1558,-0.1543,-0.1464,-0.1215,-0.1,-0.0194,0.0815,0.1458,0.1534,0.1737,0.1703,0.1783,0.157,0.1535,0.1502,0.1553,0.1837,0.1838,0.2204,0.2208,0.2211]}],[{"header":{"parameterUnit":"m.s-1","parameterCategory":2,"la1":30.2991,"la2":30.254,"lo1":-89.0895,"lo2":-89.0444,"dy":0.0017,"dx":0.0017,"nx":28,"ny":28,"refTime":"2025-03-17T21:00:00:Z","depth":"2","parameterNumber":2,"parameterNumberName":"U-component_of_CURRENTS"},"data":[0,0,0,0,0,0,0,0,0,0,0,0,0,0,0,0,0,0,0,0,0,0,0,0,0,0,0,0,0,0,0,0,0,0,0,0,0,0,0,0,0,0,0,0,0,0,0,0,0,0,0,0,0,0,0,0,0,0,-0.1098,-0.1098,0,-0.1142,-0.1142,-0.1142,-0.116,-0.116,-0.116,-0.116,-0.1157,-0.1157,-0.1157,0,0,0,0,0,0,0,0,0,0,0,0,0,-0.102,-0.1021,-0.1097,-0.1098,-0.1099,-0.1142,-0.1142,-0.1142,-0.116,-0.116,-0.116,-0.116,-0.1157,-0.1157,-0.1157,0,0,0,0,0,0,0,0,0,0,0,0,0,-0.1056,-0.1022,-0.1097,-0.1114,-0.1116,-0.1141,-0.1142,-0.1143,-0.116,-0.116,-0.116,-0.116,-0.1157,-0.1157,-0.1157,-0.1155,0,0,-0.1156,-0.1156,0,0,0,0,0,0,0,0,-0.1054,-0.1059,-0.1111,-0.1113,-0.1115,-0.1147,-0.1114,-0.1145,-0.116,-0.1142,-0.116,-0.116,-0.115,-0.1151,-0.1157,-0.1155,-0.1155,-0.1156,-0.1156,-0.1156,-0.1156,0,0,0,0,0,0,0,-0.1052,-0.1057,-0.1113,-0.1112,-0.1114,-0.1116,-0.1121,-0.112,-0.1143,-0.1143,-0.1145,-0.1152,-0.1151,-0.1157,-0.1157,-0.1155,-0.1156,-0.1156,-0.1156,-0.1156,-0.1201,-0.1202,0,0,0,0,0,0,-0.105,-0.1055,-0.1112,-0.1115,-0.1086,-0.1118,-0.1123,-0.1135,-0.1144,-0.1146,-0.1152,-0.1153,-0.1158,-0.1157,-0.1157,-0.1206,-0.1156,-0.1156,-0.1156,-0.12,-0.1201,-0.1203,0,0,0,0,0,0,-0.1048,-0.1055,-0.111,-0.1087,-0.1094,-0.1119,-0.1132,-0.1136,-0.1154,-0.1152,-0.1153,-0.1168,-0.1158,-0.1157,-0.1177,-0.1204,-0.1156,-0.1156,-0.1198,-0.12,-0.1202,-0.1271,0,0,0,0,0,0,-0.1046,-0.1054,-0.1059,-0.1087,-0.1095,-0.1135,-0.1133,-0.1137,-0.1159,-0.1161,-0.1165,-0.1165,-0.1158,-0.1178,-0.1177,-0.1203,-0.1156,-0.1197,-0.1199,-0.1201,-0.1267,-0.1275,-0.1282,0,0,0,0,0,-0.1043,-0.1054,-0.1059,-0.1066,-0.1103,-0.1136,-0.114,-0.1157,-0.116,-0.1172,-0.1183,-0.1165,-0.1192,-0.1179,-0.1177,-0.1204,-0.1195,-0.1198,-0.1201,-0.1264,-0.1274,-0.1282,0,0,0,0,0,0,-0.102,-0.1057,-0.1064,-0.1084,-0.1111,-0.1139,-0.1151,-0.1164,-0.1183,-0.1186,-0.1181,-0.1181,-0.1208,-0.1196,-0.1181,-0.1225,-0.1191,-0.1194,-0.1239,-0.1248,-0.1255,-0.1258,-0.1156,0,0,0,0,0,-0.1018,-0.1035,-0.1071,-0.1085,-0.1102,-0.1128,-0.1143,-0.1159,-0.118,-0.1189,-0.1198,-0.1206,-0.1218,-0.1225,-0.123,-0.1252,-0.126,-0.1269,-0.1276,-0.1282,-0.1284,-0.1321,-0.1332,-0.1212,-0.1212,-0.1212,0,0,-0.1009,-0.1033,-0.1041,-0.1081,-0.1102,-0.1133,-0.1137,-0.1168,-0.1198,-0.1184,-0.1224,-0.123,-0.1229,-0.126,-0.127,-0.1255,-0.1326,-0.1286,-0.1292,-0.129,-0.1325,-0.1337,-0.1347,-0.1214,-0.1214,-0.1214,0,0,-0.1008,-0.1028,-0.1047,-0.1075,-0.1116,-0.1139,-0.1152,-0.1194,-0.1217,-0.1254,-0.1257,-0.1286,-0.1297,-0.1316,-0.1321,-0.1371,-0.1363,-0.1368,-0.141,-0.1446,-0.1456,-0.1465,-0.1516,-0.1529,-0.1374,-0.1374,-0.1374,0,-0.0995,-0.1028,-0.1056,-0.1086,-0.1113,-0.1145,-0.1177,-0.1207,-0.1251,-0.1282,-0.1274,-0.133,-0.1328,-0.1378,-0.1395,-0.1389,-0.1408,-0.1377,-0.1457,-0.1465,-0.1473,-0.1523,-0.1536,-0.1378,-0.1377,-0.1377,-0.1376,0,-0.1011,-0.1042,-0.1058,-0.1108,-0.1141,-0.1173,-0.1224,-0.1265,-0.1296,-0.1329,-0.139,-0.1403,-0.1437,-0.1444,-0.1431,-0.1492,-0.1489,-0.1461,-0.1435,-0.149,-0.1538,-0.1551,-0.1383,-0.1382,-0.138,-0.138,0,0,-0.0975,-0.1053,-0.106,-0.1093,-0.1159,-0.1189,-0.1251,-0.132,-0.1376,-0.1414,-0.1485,-0.151,-0.1525,-0.1532,-0.1534,-0.1562,-0.164,-0.1535,-0.1535,-0.1587,-0.1735,-0.1814,-0.1835,-0.1624,-0.1626,-0.1628,-0.1756,0,-0.0981,-0.1038,-0.1081,-0.114,-0.1178,-0.1237,-0.1297,-0.1364,-0.1424,-0.15,-0.1534,-0.159,-0.1557,-0.1585,-0.161,-0.1629,-0.1672,-0.1609,-0.1671,-0.1674,-0.1739,-0.1852,-0.151,-0.1602,-0.1768,-0.177,-0.1772,0,-0.0982,-0.1027,-0.1085,-0.1178,-0.1202,-0.1244,-0.1357,-0.1413,-0.1523,-0.1574,-0.1638,-0.1668,-0.1729,-0.1686,-0.1759,-0.1719,-0.1733,-0.1745,-0.1749,-0.1804,-0.1777,-0.1568,-0.1618,-0.1792,-0.1791,-0.1789,-0.1788,0,-0.0946,-0.1031,-0.1078,-0.1106,-0.1214,-0.1261,-0.1321,-0.1435,-0.1503,-0.1623,-0.169,-0.1758,-0.1809,-0.183,-0.1859,-0.1812,-0.1943,-0.1881,-0.1974,-0.1979,-0.1692,-0.1671,-0.1941,-0.1941,-0.1941,-0.1941,-0.194,0,-0.0934,-0.0974,-0.1067,-0.1094,-0.1168,-0.1247,-0.1342,-0.1422,-0.1546,-0.1648,-0.1717,-0.1816,-0.1844,-0.1922,-0.1916,-0.2014,-0.1996,-0.2019,-0.2032,-0.1713,-0.1693,-0.1843,-0.1829,-0.1945,-0.1944,-0.1943,-0.1943,0,-0.0887,-0.0945,-0.1007,-0.1116,-0.1151,-0.1203,-0.1336,-0.1411,-0.1536,-0.1675,-0.1717,-0.1871,-0.2005,-0.2051,-0.2121,-0.2115,-0.2175,-0.2205,-0.1855,-0.1829,-0.2168,-0.2157,-0.2331,-0.2335,-0.2339,-0.2342,-0.2344,0,-0.0869,-0.0891,-0.0999,-0.1039,-0.1089,-0.1177,-0.1245,-0.1382,-0.1472,-0.1718,-0.1784,-0.1975,-0.2123,-0.2289,-0.222,-0.2265,-0.2328,-0.2073,-0.1937,-0.2221,-0.2215,-0.2198,-0.2182,-0.1569,-0.1565,-0.1562,-0.1559,0,-0.0829,-0.0864,-0.0914,-0.0995,-0.1063,-0.1149,-0.1259,-0.1339,-0.153,-0.1684,-0.1925,-0.2073,-0.2189,-0.2118,-0.2187,-0.2145,-0.2039,-0.2021,-0.2378,-0.1568,-0.1525,-0.1513,-0.1517,-0.153,-0.1533,-0.1535,-0.1536,-0.1538,-0.0791,-0.081,-0.0875,-0.0949,-0.1028,-0.1131,-0.1193,-0.136,-0.1535,-0.1742,-0.1904,-0.2039,-0.1991,-0.1962,-0.1904,-0.1818,-0.1962,-0.1851,-0.1849,-0.1853,-0.1787,-0.1758,-0.1793,-0.1797,-0.1801,-0.1804,-0.1807,0,-0.074,-0.0776,-0.083,-0.0927,-0.0993,-0.1057,-0.1206,-0.1288,-0.1506,-0.1648,-0.1825,-0.1643,-0.1622,-0.1632,-0.1399,-0.1415,-0.1246,-0.1419,-0.1135,-0.1164,-0.1191,-0.108,-0.0904,-0.0903,-0.0902,-0.0901,0,0,-0.0718,-0.0735,-0.0766,-0.0862,-0.0938,-0.1017,-0.1093,-0.1249,-0.1359,-0.1442,-0.1453,-0.1553,-0.1585,-0.1254,-0.1147,-0.1023,-0.1095,-0.0962,-0.1659,-0.1351,-0.1377,-0.139,-0.1252,0,0,0,0,0]},{"header":{"parameterUnit":"m.s-1","parameterCategory":2,"la1":30.2991,"la2":30.254,"lo1":-89.0895,"lo2":-89.0444,"dy":0.0017,"dx":0.0017,"nx":28,"ny":28,"refTime":"2025-03-17T21:00:00:Z","depth":"2","parameterNumber":3,"parameterNumberName":"V-component_of_CURRENTS"},"data":[0,0,0,0,0,0,0,0,0,0,0,0,0,0,0,0,0,0,0,0,0,0,0,0,0,0,0,0,0,0,0,0,0,0,0,0,0,0,0,0,0,0,0,0,0,0,0,0,0,0,0,0,0,0,0,0,0,0,0.0111,0.0111,0,0.0141,0.0141,0.0142,0.014,0.0139,0.0139,0.0138,0.0202,0.0204,0.0206,0,0,0,0,0,0,0,0,0,0,0,0,0,0.0099,0.0099,0.0111,0.0111,0.0112,0.0141,0.0141,0.0142,0.014,0.0139,0.0139,0.0138,0.0201,0.0204,0.0206,0,0,0,0,0,0,0,0,0,0,0,0,0,0.0114,0.0099,0.0111,0.0114,0.0114,0.0141,0.0141,0.0142,0.014,0.0139,0.0138,0.0138,0.02,0.0203,0.0206,0.0241,0,0,0.0216,0.0218,0,0,0,0,0,0,0,0,0.0113,0.0115,0.0113,0.0113,0.0114,0.0135,0.016,0.0177,0.014,0.0131,0.0138,0.0137,0.0183,0.0187,0.0195,0.0244,0.0247,0.0217,0.0219,0.022,0.0221,0,0,0,0,0,0,0,0.0112,0.0114,0.0123,0.0113,0.0114,0.0129,0.013,0.0164,0.0162,0.0132,0.0131,0.0134,0.0183,0.0192,0.0197,0.0248,0.0217,0.0219,0.0221,0.0223,0.0284,0.0283,0,0,0,0,0,0,0.0106,0.0113,0.0122,0.0124,0.0111,0.013,0.0131,0.013,0.0161,0.0164,0.0135,0.0134,0.0187,0.0193,0.0199,0.0195,0.022,0.0223,0.0225,0.0284,0.0284,0.0283,0,0,0,0,0,0,0.0105,0.0106,0.0121,0.0119,0.0122,0.0131,0.0129,0.0131,0.0122,0.0162,0.0167,0.0122,0.0186,0.0194,0.0211,0.0199,0.0224,0.0227,0.0284,0.0284,0.0283,0.0217,0,0,0,0,0,0,0.0105,0.0106,0.0093,0.0118,0.0122,0.0122,0.013,0.0132,0.0125,0.0124,0.0154,0.016,0.0186,0.0206,0.0214,0.0204,0.023,0.0285,0.0284,0.0284,0.0219,0.0214,0.0209,0,0,0,0,0,0.0104,0.009,0.0092,0.0092,0.0106,0.0121,0.0124,0.0129,0.0125,0.0118,0.0137,0.0158,0.0208,0.0208,0.0218,0.0208,0.0285,0.0284,0.0284,0.0221,0.0215,0.021,0,0,0,0,0,0,0.0079,0.0089,0.0091,0.008,0.0093,0.012,0.0111,0.0119,0.0128,0.0122,0.0158,0.0165,0.0175,0.0203,0.0203,0.0224,0.0249,0.025,0.0198,0.0193,0.0188,0.018,0.0233,0,0,0,0,0,0.0068,0.0055,0.0076,0.0065,0.0069,0.0087,0.0089,0.0095,0.0112,0.0114,0.0135,0.0159,0.0185,0.0195,0.0222,0.0237,0.0263,0.0237,0.0232,0.0227,0.0228,0.0264,0.0263,0.0281,0.0281,0.0281,0,0,0.0056,0.0058,0.0052,0.0058,0.0067,0.0067,0.0086,0.0083,0.008,0.0122,0.0117,0.0144,0.0185,0.0197,0.0204,0.0216,0.023,0.0226,0.0222,0.0225,0.0264,0.0262,0.026,0.028,0.0281,0.0281,0,0,0.0031,0.0027,0.0011,0.0019,0.0025,0.0038,0.0033,0.0051,0.0051,0.0059,0.0085,0.0106,0.0138,0.0167,0.0187,0.0175,0.0204,0.0176,0.0144,0.0179,0.0178,0.0177,0.0183,0.0183,0.0172,0.0172,0.0172,0,0.0013,-0.0002,0.0009,0.0001,-0.0002,0.0021,0.0008,0.002,0.0039,0.0039,0.0045,0.0095,0.0128,0.0153,0.0144,0.0164,0.0176,0.0161,0.0172,0.0172,0.0173,0.0179,0.018,0.0169,0.0169,0.0169,0.017,0,-0.0014,-0.003,-0.0038,-0.0046,-0.0045,-0.0052,-0.0034,-0.0039,-0.0036,-0.0018,-0.0003,0.0045,0.0074,0.0086,0.0111,0.0128,0.0131,0.0161,0.0184,0.0167,0.0174,0.0176,0.0164,0.0165,0.0166,0.0167,0,0,-0.0046,-0.0058,-0.0063,-0.0081,-0.0073,-0.0079,-0.0086,-0.0083,-0.0097,-0.0067,-0.007,-0.0021,0.0004,0.0028,0.0066,0.0097,0.0104,0.012,0.0123,0.0119,0.0153,0.0216,0.0225,0.0131,0.0132,0.0133,0.0147,0,-0.0075,-0.011,-0.0103,-0.0139,-0.0157,-0.0142,-0.0154,-0.0148,-0.0137,-0.0131,-0.0075,-0.0058,-0.0017,-0.0008,0.003,0.0092,0.0111,0.0095,0.0176,0.0178,0.0233,0.0232,0.0206,0.0223,0.0149,0.015,0.015,0,-0.0105,-0.0129,-0.017,-0.0202,-0.0209,-0.0224,-0.0249,-0.0252,-0.0226,-0.0217,-0.0179,-0.0134,-0.0081,-0.0043,0.0049,0.0032,0.008,0.0128,0.0131,0.022,0.0248,0.0235,0.0231,0.0155,0.0155,0.0154,0.0154,0,-0.0146,-0.0178,-0.0221,-0.0228,-0.0253,-0.0277,-0.0289,-0.0283,-0.0298,-0.0264,-0.0265,-0.019,-0.0158,-0.0074,0.0021,0.0032,0.0116,0.015,0.0247,0.025,0.0263,0.0268,0.0206,0.0206,0.0206,0.0206,0.0206,0,-0.0183,-0.0217,-0.0249,-0.0272,-0.0331,-0.0327,-0.0379,-0.0376,-0.0373,-0.0398,-0.0312,-0.0308,-0.0165,-0.0098,-0.0005,0.0126,0.0096,0.0243,0.0269,0.0237,0.0239,0.0216,0.0217,0.0207,0.0207,0.0207,0.0206,0,-0.022,-0.0236,-0.0292,-0.0335,-0.0354,-0.0397,-0.0443,-0.0479,-0.0462,-0.0486,-0.0479,-0.0398,-0.0299,-0.0165,-0.0029,0.0092,0.0211,0.0255,0.0197,0.0218,0.0324,0.0322,0.0384,0.0387,0.0389,0.0391,0.0393,0,-0.0239,-0.0272,-0.0344,-0.0386,-0.041,-0.0469,-0.0517,-0.0526,-0.0563,-0.0551,-0.0571,-0.0477,-0.0426,-0.0189,0.0051,0.0243,0.022,0.0334,0.0383,0.0329,0.0347,0.0341,0.0335,0.0347,0.0348,0.0349,0.0349,0,-0.0279,-0.0309,-0.0358,-0.0446,-0.051,-0.0585,-0.0648,-0.0697,-0.0714,-0.0731,-0.0746,-0.0699,-0.0426,-0.0191,0.0111,0.0227,0.0318,0.0363,0.0315,0.0326,0.0302,0.0317,0.0311,0.0357,0.0356,0.0356,0.0355,0.0355,-0.0308,-0.0357,-0.0428,-0.0514,-0.0592,-0.0704,-0.0793,-0.0861,-0.094,-0.0957,-0.0858,-0.0738,-0.0451,0.0001,0.0198,0.0415,0.042,0.0471,0.0465,0.0458,0.0472,0.0455,0.0539,0.0539,0.0539,0.054,0.054,0,-0.0335,-0.0407,-0.049,-0.061,-0.0709,-0.0745,-0.0887,-0.0985,-0.1114,-0.1012,-0.0972,-0.0614,-0.0315,-0.0038,0.0327,0.0546,0.0524,0.0556,0.0475,0.0467,0.046,0.047,0.0539,0.0539,0.054,0.054,0,0,-0.0355,-0.0438,-0.0492,-0.0676,-0.0778,-0.0964,-0.1064,-0.1204,-0.1191,-0.1115,-0.0941,-0.0654,-0.0306,-0.0033,0.0217,0.037,0.0357,0.0385,0.0365,0.0229,0.0219,0.0393,0.0399,0,0,0,0,0]}],[{"header":{"parameterUnit":"m.s-1","parameterCategory":2,"la1":30.2991,"la2":30.254,"lo1":-89.0895,"lo2":-89.0444,"dy":0.0017,"dx":0.0017,"nx":28,"ny":28,"refTime":"2025-03-17T21:00:00:Z","depth":"4","parameterNumber":2,"parameterNumberName":"U-component_of_CURRENTS"},"data":[0,0,0,0,0,0,0,0,0,0,0,0,0,0,0,0,0,0,0,0,0,0,0,0,0,0,0,0,0,0,0,0,0,0,0,0,0,0,0,0,0,0,0,0,0,0,0,0,0,0,0,0,0,0,0,0,0,0,-0.0751,-0.0752,0,-0.0804,-0.0804,-0.0805,-0.0859,-0.0859,-0.086,-0.0861,-0.0962,-0.0964,-0.0966,0,0,0,0,0,0,0,0,0,0,0,0,0,-0.0729,-0.0729,-0.0751,-0.0752,-0.0752,-0.0804,-0.0804,-0.0805,-0.0859,-0.086,-0.086,-0.0861,-0.0961,-0.0963,-0.0966,0,0,0,0,0,0,0,0,0,0,0,0,0,-0.0755,-0.0728,-0.0751,-0.0785,-0.0789,-0.0804,-0.0804,-0.0805,-0.0858,-0.086,-0.0861,-0.0862,-0.096,-0.0963,-0.0966,-0.0963,0,0,-0.0975,-0.0977,0,0,0,0,0,0,0,0,-0.0754,-0.0756,-0.0779,-0.0783,-0.0787,-0.0826,-0.0834,-0.0861,-0.0858,-0.0832,-0.0861,-0.0862,-0.092,-0.0926,-0.0933,-0.0968,-0.0972,-0.0976,-0.0978,-0.0979,-0.098,0,0,0,0,0,0,0,-0.0752,-0.0754,-0.0772,-0.078,-0.0785,-0.0809,-0.0814,-0.0839,-0.087,-0.0834,-0.0838,-0.0844,-0.0922,-0.093,-0.0936,-0.0974,-0.0976,-0.0978,-0.098,-0.0981,-0.1166,-0.1169,0,0,0,0,0,0,-0.0742,-0.0752,-0.077,-0.0774,-0.0773,-0.0808,-0.0814,-0.0812,-0.0869,-0.0878,-0.0843,-0.0846,-0.0924,-0.0933,-0.094,-0.1086,-0.0979,-0.0982,-0.0983,-0.1163,-0.1167,-0.117,0,0,0,0,0,0,-0.0741,-0.0743,-0.0768,-0.0765,-0.077,-0.0807,-0.0805,-0.0813,-0.0845,-0.0875,-0.0885,-0.0871,-0.0926,-0.0936,-0.1023,-0.1085,-0.0983,-0.0986,-0.1159,-0.1164,-0.1168,-0.1284,0,0,0,0,0,0,-0.074,-0.0742,-0.0748,-0.0764,-0.0769,-0.0787,-0.0805,-0.0813,-0.0845,-0.0851,-0.0902,-0.0911,-0.0927,-0.1019,-0.1026,-0.1087,-0.0988,-0.1155,-0.1161,-0.1167,-0.1277,-0.1292,-0.1306,0,0,0,0,0,-0.0739,-0.0744,-0.0748,-0.0751,-0.0773,-0.0787,-0.0793,-0.0823,-0.0846,-0.0858,-0.0929,-0.0911,-0.106,-0.1024,-0.1032,-0.1095,-0.1152,-0.116,-0.1166,-0.127,-0.1289,-0.1306,0,0,0,0,0,0,-0.0742,-0.075,-0.0755,-0.0763,-0.0777,-0.0797,-0.0816,-0.0834,-0.0895,-0.0919,-0.0951,-0.0966,-0.1056,-0.1062,-0.1021,-0.1166,-0.1102,-0.1111,-0.1179,-0.1197,-0.1211,-0.1163,-0.0991,0,0,0,0,0,-0.0741,-0.0747,-0.0756,-0.0765,-0.0774,-0.0798,-0.0813,-0.0833,-0.0881,-0.0908,-0.0971,-0.1034,-0.1084,-0.1131,-0.1167,-0.1251,-0.12,-0.1297,-0.1312,-0.1324,-0.1292,-0.1295,-0.1306,-0.1193,-0.1193,-0.1192,0,0,-0.0746,-0.0751,-0.0756,-0.0766,-0.0783,-0.0799,-0.0811,-0.0841,-0.0875,-0.091,-0.1017,-0.1077,-0.1113,-0.1213,-0.1255,-0.1235,-0.1334,-0.1333,-0.1343,-0.1303,-0.1304,-0.1314,-0.1323,-0.1197,-0.1197,-0.1196,0,0,-0.0754,-0.0762,-0.0769,-0.078,-0.0804,-0.0817,-0.0829,-0.0883,-0.0929,-0.1015,-0.1067,-0.1161,-0.1252,-0.1307,-0.1333,-0.1443,-0.1396,-0.1483,-0.154,-0.1546,-0.1554,-0.156,-0.1515,-0.1516,-0.151,-0.1511,-0.1511,0,-0.0759,-0.0766,-0.0775,-0.0785,-0.08,-0.0827,-0.0844,-0.0884,-0.0977,-0.1032,-0.1059,-0.1242,-0.1277,-0.1391,-0.145,-0.147,-0.1458,-0.1473,-0.1562,-0.1567,-0.1571,-0.1523,-0.1522,-0.1517,-0.1516,-0.1516,-0.1515,0,-0.0768,-0.078,-0.0788,-0.0806,-0.0823,-0.0844,-0.0887,-0.0953,-0.1021,-0.1077,-0.1222,-0.1312,-0.1422,-0.1469,-0.1493,-0.1586,-0.1561,-0.1563,-0.1508,-0.1589,-0.1534,-0.1531,-0.1526,-0.1524,-0.1522,-0.152,0,0,-0.0753,-0.0788,-0.079,-0.0802,-0.0838,-0.085,-0.0919,-0.0985,-0.1051,-0.1174,-0.1278,-0.1409,-0.1496,-0.1532,-0.1616,-0.164,-0.1673,-0.164,-0.1638,-0.1576,-0.1668,-0.1565,-0.1551,-0.1717,-0.1718,-0.1718,-0.1617,0,-0.0756,-0.0777,-0.0798,-0.0825,-0.0837,-0.0885,-0.0938,-0.101,-0.1106,-0.1226,-0.1335,-0.1467,-0.1511,-0.1618,-0.1651,-0.167,-0.1674,-0.1697,-0.1612,-0.1607,-0.1491,-0.1547,-0.1719,-0.1615,-0.1614,-0.1614,-0.1613,0,-0.0747,-0.0763,-0.0791,-0.0833,-0.0845,-0.087,-0.0967,-0.1031,-0.1175,-0.1278,-0.1435,-0.1526,-0.1645,-0.1655,-0.1692,-0.1723,-0.1695,-0.1679,-0.1675,-0.1522,-0.1498,-0.1517,-0.1607,-0.1608,-0.1608,-0.1609,-0.1609,0,-0.0718,-0.0754,-0.0778,-0.079,-0.0846,-0.0882,-0.093,-0.1052,-0.1119,-0.1342,-0.141,-0.158,-0.1652,-0.1677,-0.1677,-0.1704,-0.1648,-0.1671,-0.153,-0.152,-0.1588,-0.1582,-0.1638,-0.1638,-0.1638,-0.1638,-0.1639,0,-0.0698,-0.0713,-0.0766,-0.0776,-0.0804,-0.0867,-0.0938,-0.1041,-0.1178,-0.1253,-0.145,-0.1523,-0.166,-0.1662,-0.1667,-0.158,-0.1639,-0.1513,-0.1491,-0.1642,-0.1643,-0.1585,-0.158,-0.1635,-0.1635,-0.1636,-0.1637,0,-0.0654,-0.0693,-0.0713,-0.0773,-0.0786,-0.0816,-0.0898,-0.0953,-0.1111,-0.1213,-0.1287,-0.1457,-0.149,-0.1546,-0.1558,-0.1521,-0.1481,-0.1424,-0.1543,-0.1533,-0.1345,-0.1348,-0.1258,-0.1254,-0.125,-0.1247,-0.1244,0,-0.0633,-0.0642,-0.0691,-0.0694,-0.0718,-0.0766,-0.0787,-0.0927,-0.0984,-0.1147,-0.1169,-0.1259,-0.1359,-0.128,-0.1365,-0.1347,-0.1336,-0.1297,-0.1356,-0.1319,-0.1308,-0.1317,-0.1325,-0.1238,-0.1237,-0.1236,-0.1235,0,-0.0586,-0.0613,-0.0631,-0.0635,-0.0646,-0.0656,-0.0703,-0.0727,-0.0883,-0.0993,-0.1068,-0.1131,-0.1134,-0.1203,-0.119,-0.1183,-0.1336,-0.1258,-0.1267,-0.1322,-0.1294,-0.1289,-0.1301,-0.1222,-0.1224,-0.1225,-0.1226,0,-0.0548,-0.0545,-0.057,-0.0567,-0.0572,-0.0556,-0.059,-0.0634,-0.0696,-0.0878,-0.0882,-0.1,-0.1107,-0.1108,-0.1099,-0.1095,-0.1089,-0.1075,-0.1093,-0.1108,-0.1114,-0.1061,-0.088,0,0,0,0,0,-0.0503,-0.0498,-0.0495,-0.048,-0.0482,-0.0482,-0.0531,-0.0577,-0.069,-0.0711,-0.081,-0.0841,-0.0897,-0.0955,-0.0919,-0.1,-0.1068,-0.0952,-0.1055,-0.115,-0.1165,-0.1192,0,0,0,0,0,0,-0.0473,-0.0475,-0.0476,-0.041,-0.0385,-0.0368,-0.04,-0.0471,-0.0499,-0.0634,-0.0668,-0.0772,-0.0827,-0.09,-0.0898,-0.0909,-0.0952,-0.1017,-0.1014,-0.1142,-0.1155,-0.1168,-0.12,0,0,0,0,0]},{"header":{"parameterUnit":"m.s-1","parameterCategory":2,"la1":30.2991,"la2":30.254,"lo1":-89.0895,"lo2":-89.0444,"dy":0.0017,"dx":0.0017,"nx":28,"ny":28,"refTime":"2025-03-17T21:00:00:Z","depth":"4","parameterNumber":3,"parameterNumberName":"V-component_of_CURRENTS"},"data":[0,0,0,0,0,0,0,0,0,0,0,0,0,0,0,0,0,0,0,0,0,0,0,0,0,0,0,0,0,0,0,0,0,0,0,0,0,0,0,0,0,0,0,0,0,0,0,0,0,0,0,0,0,0,0,0,0,0,-0.003,-0.0029,0,-0.0023,-0.0023,-0.0023,0.0009,0.001,0.0011,0.0012,0.0051,0.0052,0.0052,0,0,0,0,0,0,0,0,0,0,0,0,0,-0.0021,-0.0021,-0.003,-0.0029,-0.0029,-0.0023,-0.0023,-0.0023,0.0009,0.001,0.0012,0.0013,0.0051,0.0052,0.0052,0,0,0,0,0,0,0,0,0,0,0,0,0,-0.0023,-0.0022,-0.003,-0.001,-0.0008,-0.0023,-0.0023,-0.0023,0.0009,0.001,0.0012,0.0013,0.0051,0.0051,0.0052,0.0023,0,0,0.0052,0.0052,0,0,0,0,0,0,0,0,-0.0023,-0.0023,-0.0014,-0.0012,-0.001,-0.0004,-0.0005,-0.0005,0.0009,-0.0,0.0012,0.0014,0.0036,0.0038,0.0032,0.0025,0.0027,0.0052,0.0052,0.0052,0.0053,0,0,0,0,0,0,0,-0.0023,-0.0024,-0.0029,-0.0013,-0.0011,-0.0004,-0.0003,-0.0006,0.0009,0.0001,0.0004,0.0008,0.0038,0.0032,0.0033,0.0028,0.0052,0.0052,0.0053,0.0053,0.0075,0.0075,0,0,0,0,0,0,-0.002,-0.0024,-0.0029,-0.0029,-0.001,-0.0005,-0.0004,-0.0009,0.0008,0.0012,0.0006,0.0009,0.0031,0.0033,0.0035,0.0092,0.0052,0.0053,0.0053,0.0074,0.0075,0.0076,0,0,0,0,0,0,-0.002,-0.0021,-0.003,-0.0023,-0.0024,-0.0007,-0.0013,-0.001,-0.0004,0.0012,0.0017,0.0011,0.0032,0.0035,0.0061,0.0091,0.0053,0.0053,0.0074,0.0075,0.0075,0.0149,0,0,0,0,0,0,-0.002,-0.0022,-0.0025,-0.0024,-0.0024,-0.0035,-0.0014,-0.0011,-0.0004,0.0,0.0017,0.0022,0.0033,0.0061,0.0061,0.009,0.0053,0.0073,0.0074,0.0075,0.0146,0.0153,0.0158,0,0,0,0,0,-0.002,-0.0027,-0.0026,-0.0026,-0.0029,-0.0036,-0.0036,-0.002,-0.0005,-0.0008,0.0023,0.0022,0.0067,0.0061,0.0062,0.0092,0.0073,0.0074,0.0075,0.0144,0.0151,0.0158,0,0,0,0,0,0,-0.0018,-0.0024,-0.0022,-0.0029,-0.0032,-0.0029,-0.0027,-0.0021,-0.0003,0.0009,0.0028,0.0035,0.0056,0.0059,0.0053,0.0098,0.0068,0.007,0.012,0.0127,0.0133,0.0118,0.0053,0,0,0,0,0,-0.0023,-0.0034,-0.0035,-0.0041,-0.004,-0.0036,-0.0035,-0.0028,-0.0012,-0.0003,0.0021,0.0043,0.0055,0.0083,0.0077,0.0113,0.0113,0.0129,0.0135,0.014,0.0126,0.0177,0.0187,0.0079,0.0079,0.0079,0,0,-0.0022,-0.0028,-0.0033,-0.0042,-0.004,-0.0054,-0.0032,-0.0031,-0.0039,-0.0003,0.0015,0.0047,0.0059,0.0095,0.0108,0.0114,0.017,0.0142,0.0147,0.0129,0.0179,0.019,0.02,0.008,0.008,0.008,0,0,-0.0031,-0.0033,-0.0046,-0.0053,-0.0055,-0.0059,-0.0059,-0.0047,-0.0036,-0.0023,0.001,0.0059,0.0078,0.0115,0.0127,0.0154,0.0176,0.0173,0.0223,0.0274,0.0284,0.0292,0.0307,0.0317,0.0206,0.0206,0.0206,0,-0.0027,-0.005,-0.0049,-0.0064,-0.0074,-0.0064,-0.0082,-0.008,-0.0055,-0.0047,-0.0017,0.0047,0.0072,0.0125,0.0169,0.0165,0.0205,0.0204,0.0285,0.0293,0.03,0.0313,0.0323,0.021,0.0209,0.0209,0.0209,0,-0.005,-0.0067,-0.0072,-0.0097,-0.011,-0.0121,-0.0123,-0.0119,-0.0099,-0.0085,-0.0035,0.0035,0.009,0.012,0.0167,0.0252,0.0263,0.0267,0.0273,0.0316,0.0326,0.0335,0.0215,0.0214,0.0213,0.0212,0,0,-0.0045,-0.0082,-0.0084,-0.0108,-0.0129,-0.0146,-0.0162,-0.0175,-0.0186,-0.0116,-0.0094,-0.0002,0.0083,0.0106,0.0197,0.0277,0.0385,0.0338,0.0339,0.0362,0.0508,0.0456,0.046,0.0446,0.0448,0.045,0.0495,0,-0.0062,-0.0101,-0.0119,-0.0165,-0.0187,-0.0199,-0.0225,-0.0233,-0.0219,-0.019,-0.0091,-0.0033,0.0065,0.0148,0.0246,0.0349,0.0413,0.0371,0.0452,0.0452,0.0411,0.0469,0.0455,0.0501,0.0503,0.0504,0.0505,0,-0.0083,-0.0109,-0.0152,-0.0213,-0.0224,-0.0252,-0.0298,-0.0315,-0.0289,-0.0258,-0.0155,-0.007,0.0098,0.0156,0.036,0.0356,0.0437,0.0499,0.0502,0.0428,0.0416,0.0446,0.052,0.0519,0.0518,0.0517,0.0516,0,-0.009,-0.014,-0.0179,-0.0196,-0.0253,-0.028,-0.0311,-0.0329,-0.0349,-0.0266,-0.0249,-0.0063,0.0034,0.0202,0.0377,0.0405,0.0547,0.0576,0.0572,0.0568,0.0567,0.0557,0.0658,0.0658,0.0658,0.0657,0.0657,0,-0.0111,-0.0145,-0.0185,-0.0207,-0.0266,-0.0297,-0.0354,-0.036,-0.0363,-0.0374,-0.0244,-0.0188,0.0061,0.0182,0.0354,0.0496,0.053,0.0576,0.0585,0.0595,0.0588,0.0573,0.0563,0.0659,0.0659,0.0658,0.0658,0,-0.012,-0.0143,-0.0191,-0.0247,-0.0271,-0.0309,-0.0389,-0.0427,-0.0423,-0.0425,-0.0378,-0.026,-0.0081,0.0096,0.0325,0.0422,0.0576,0.0588,0.0556,0.0562,0.0568,0.056,0.0622,0.062,0.0619,0.0618,0.0618,0,-0.0132,-0.0152,-0.0212,-0.0244,-0.0272,-0.0335,-0.0388,-0.0429,-0.0463,-0.0462,-0.0451,-0.0324,-0.0213,0.0039,0.0246,0.0496,0.0515,0.057,0.0613,0.0566,0.0569,0.0563,0.0557,0.0616,0.0616,0.0615,0.0615,0,-0.0149,-0.0161,-0.0197,-0.0253,-0.031,-0.0387,-0.0455,-0.0491,-0.0529,-0.0531,-0.0487,-0.0352,-0.0218,0.0025,0.0173,0.0367,0.0553,0.0561,0.0565,0.0606,0.056,0.0562,0.0558,0.0612,0.0612,0.0612,0.0613,0,-0.0154,-0.0178,-0.0212,-0.0266,-0.0334,-0.0413,-0.0461,-0.0505,-0.0545,-0.055,-0.0522,-0.0373,-0.0273,-0.0048,0.0127,0.0284,0.034,0.04,0.0415,0.0421,0.0356,0.0269,0.0241,0,0,0,0,0,-0.0156,-0.0181,-0.0229,-0.0289,-0.0353,-0.0396,-0.0495,-0.0539,-0.058,-0.0556,-0.0549,-0.0408,-0.0184,-0.0081,0.0069,0.0123,0.0371,0.0301,0.045,0.0591,0.0595,0.0551,0,0,0,0,0,0,-0.0161,-0.0197,-0.0221,-0.0289,-0.0329,-0.0414,-0.0481,-0.0519,-0.0513,-0.0523,-0.04,-0.0359,-0.0131,-0.0246,0.0087,0.013,0.0241,0.0407,0.041,0.0589,0.0593,0.0596,0.0552,0,0,0,0,0]}]]